THY877 FAOR-LTFM

Flight info

Callsign THY877
Flight time N/A
Altitude 33000
Route EGMEN1C EGMEN UQ2 EPSEK UM307 NIGOD UB529 KURLA UR525 VHA UP312 SINGI/N0497F350 UP312 LOSIN UM441 LOTAS/N0503F340 UM308 RUDOL/N0500F350 UM308 GWZ/N0496F360 UT124 ALRAP/N0498F350 DCT KSL/N0494F360 DCT TOMRU P751 AST W8 ALPID/N0486F370 DCT GESON/N0487F360 DCT LAGVI Q777 ULOMO/N0481F380 Q777 RASDA M855 TOMBI UM855 LEMDA UA16 KFK UM855 SISPI
Aircraft B77W/H-SDE1E2E3FGHIJ2J3J4J5M1RWXY/LB1D1

Departure

Time 2026-05-06 09:56
Airport O.R. Tambo International Airport (FAOR)

Arrival

Time N/A
Airport İstanbul Airport (LTFM)
Time Latitude Longitude Altitude Speed Heading
2026-05-06 09:14 -26.13291 28.23311 5574 ft 0 kts 277°
2026-05-06 09:45 -26.13291 28.23313 5574 ft 1 kts 277°
2026-05-06 09:46 -26.13292 28.23325 5574 ft 0 kts 277°
2026-05-06 09:46 -26.13294 28.23341 5573 ft 2 kts 268°
2026-05-06 09:46 -26.13292 28.23357 5572 ft 2 kts 252°
2026-05-06 09:46 -26.13286 28.23372 5571 ft 2 kts 239°
2026-05-06 09:47 -26.13277 28.23386 5570 ft 2 kts 225°
2026-05-06 09:47 -26.13266 28.23396 5570 ft 2 kts 212°
2026-05-06 09:47 -26.13253 28.23404 5569 ft 0 kts 199°
2026-05-06 09:47 -26.13242 28.23408 5568 ft 2 kts 190°
2026-05-06 09:48 -26.13235 28.23409 5568 ft 1 kts 185°
2026-05-06 09:48 -26.13233 28.23409 5568 ft 0 kts 185°
2026-05-06 09:49 -26.13235 28.23409 5568 ft 1 kts 185°
2026-05-06 09:50 -26.13259 28.23406 5569 ft 7 kts 187°
2026-05-06 09:50 -26.13332 28.23394 5571 ft 13 kts 189°
2026-05-06 09:50 -26.13446 28.23372 5574 ft 19 kts 190°
2026-05-06 09:50 -26.13573 28.23355 5576 ft 17 kts 186°
2026-05-06 09:51 -26.13689 28.23342 5577 ft 15 kts 186°
2026-05-06 09:51 -26.13767 28.23376 5575 ft 12 kts 117°
2026-05-06 09:51 -26.13802 28.23471 5569 ft 13 kts 144°
2026-05-06 09:51 -26.13891 28.23464 5570 ft 12 kts 196°
2026-05-06 09:52 -26.13972 28.23438 5571 ft 12 kts 196°
2026-05-06 09:52 -26.14073 28.23406 5573 ft 17 kts 196°
2026-05-06 09:52 -26.14187 28.23369 5575 ft 14 kts 197°
2026-05-06 09:52 -26.14278 28.23341 5577 ft 13 kts 194°
2026-05-06 09:53 -26.14368 28.23317 5579 ft 12 kts 194°
2026-05-06 09:53 -26.14447 28.23291 5582 ft 11 kts 197°
2026-05-06 09:53 -26.14516 28.23277 5583 ft 8 kts 182°
2026-05-06 09:53 -26.14566 28.23286 5583 ft 6 kts 166°
2026-05-06 09:54 -26.14600 28.23319 5583 ft 8 kts 109°
2026-05-06 09:54 -26.14620 28.23397 5580 ft 9 kts 105°
2026-05-06 09:54 -26.14610 28.23441 5578 ft 5 kts 25°
2026-05-06 09:54 -26.14599 28.23445 5578 ft 1 kts 15°
2026-05-06 09:55 -26.14440 28.23493 5573 ft 54 kts 14°
2026-05-06 09:55 -26.13872 28.23666 5558 ft 113 kts 17°
2026-05-06 09:55 -26.12927 28.23965 5533 ft 166 kts 15°
2026-05-06 09:55 -26.11676 28.24350 5614 ft 201 kts 12°
2026-05-06 09:56 -26.10239 28.24744 5815 ft 221 kts 10°
2026-05-06 09:56 -26.08735 28.25145 6614 ft 218 kts 12°
2026-05-06 09:56 -26.07309 28.25594 7079 ft 216 kts 13°
2026-05-06 09:56 -26.05840 28.26124 7411 ft 224 kts 15°
2026-05-06 09:57 -26.04284 28.26653 7505 ft 243 kts 12°
2026-05-06 09:57 -26.02601 28.27238 7545 ft 268 kts 24°
2026-05-06 09:57 -26.01142 28.28608 7876 ft 282 kts 52°
2026-05-06 09:57 -26.00333 28.30644 7988 ft 295 kts 76°
2026-05-06 09:58 -25.99988 28.32865 7985 ft 294 kts 79°
2026-05-06 09:58 -25.99631 28.35132 7995 ft 300 kts 78°
2026-05-06 09:58 -25.99219 28.37406 7977 ft 298 kts 76°
2026-05-06 09:58 -25.98788 28.39651 7971 ft 298 kts 75°
2026-05-06 09:59 -25.98352 28.41893 7972 ft 299 kts 75°
2026-05-06 09:59 -25.97909 28.44161 7969 ft 297 kts 75°
2026-05-06 09:59 -25.97469 28.46405 7972 ft 298 kts 76°
2026-05-06 09:59 -25.97030 28.48648 7969 ft 298 kts 76°
2026-05-06 10:00 -25.96592 28.50885 7978 ft 299 kts 75°
2026-05-06 10:00 -25.96145 28.53159 7971 ft 298 kts 75°
2026-05-06 10:00 -25.95707 28.55391 7960 ft 300 kts 75°
2026-05-06 10:00 -25.95265 28.57638 7962 ft 298 kts 75°
2026-05-06 10:01 -25.94821 28.59896 7977 ft 298 kts 75°
2026-05-06 10:01 -25.94379 28.62144 7969 ft 298 kts 74°
2026-05-06 10:01 -25.93908 28.64375 7977 ft 299 kts 70°
2026-05-06 10:01 -25.93208 28.66546 7972 ft 296 kts 62°
2026-05-06 10:02 -25.92265 28.68578 7972 ft 294 kts 53°
2026-05-06 10:02 -25.91098 28.70434 8097 ft 297 kts 45°
2026-05-06 10:02 -25.89718 28.72081 8797 ft 291 kts 37°
2026-05-06 10:02 -25.88219 28.73572 9488 ft 289 kts 35°
2026-05-06 10:03 -25.86719 28.75048 10096 ft 291 kts 34°
2026-05-06 10:03 -25.85201 28.76541 10593 ft 297 kts 33°
2026-05-06 10:03 -25.83604 28.78108 10831 ft 314 kts 33°
2026-05-06 10:03 -25.81929 28.79755 11131 ft 329 kts 33°
2026-05-06 10:04 -25.80165 28.81493 11438 ft 345 kts 33°
2026-05-06 10:04 -25.78338 28.83291 11755 ft 361 kts 33°
2026-05-06 10:04 -25.76416 28.85184 12108 ft 375 kts 33°
2026-05-06 10:04 -25.74431 28.87137 12469 ft 389 kts 33°
2026-05-06 10:05 -25.72398 28.89140 13081 ft 395 kts 32°
2026-05-06 10:05 -25.70375 28.91135 13914 ft 395 kts 32°
2026-05-06 10:05 -25.68323 28.93157 14706 ft 396 kts 31°
2026-05-06 10:05 -25.66225 28.95217 15339 ft 403 kts 31°
2026-05-06 10:06 -25.64162 28.97328 15917 ft 414 kts 35°
2026-05-06 10:06 -25.62175 28.99657 16554 ft 420 kts 36°
2026-05-06 10:06 -25.60174 29.02037 17089 ft 426 kts 36°
2026-05-06 10:06 -25.58136 29.04457 17581 ft 432 kts 36°
2026-05-06 10:07 -25.56090 29.06887 18234 ft 435 kts 36°
2026-05-06 10:07 -25.54031 29.09329 18864 ft 437 kts 36°
2026-05-06 10:07 -25.51939 29.11808 19472 ft 440 kts 36°
2026-05-06 10:07 -25.49832 29.14300 20020 ft 445 kts 37°
2026-05-06 10:08 -25.47739 29.16774 20613 ft 448 kts 37°
2026-05-06 10:08 -25.45608 29.19293 21202 ft 451 kts 37°
2026-05-06 10:08 -25.43464 29.21831 21837 ft 453 kts 37°
2026-05-06 10:08 -25.41313 29.24396 22405 ft 456 kts 38°
2026-05-06 10:09 -25.39157 29.26969 23016 ft 458 kts 37°
2026-05-06 10:09 -25.36983 29.29560 23552 ft 461 kts 37°
2026-05-06 10:09 -25.34797 29.32162 23975 ft 467 kts 37°
2026-05-06 10:09 -25.32570 29.34810 24427 ft 472 kts 38°
2026-05-06 10:10 -25.30354 29.37446 24965 ft 475 kts 37°
2026-05-06 10:10 -25.28089 29.40138 25430 ft 479 kts 38°
2026-05-06 10:10 -25.25816 29.42837 25951 ft 482 kts 37°
2026-05-06 10:10 -25.23533 29.45548 26486 ft 484 kts 37°
2026-05-06 10:11 -25.21237 29.48271 26922 ft 488 kts 37°
2026-05-06 10:11 -25.18925 29.51011 27362 ft 492 kts 37°
2026-05-06 10:11 -25.16566 29.53806 27825 ft 496 kts 37°
2026-05-06 10:11 -25.14223 29.56578 28254 ft 500 kts 37°
2026-05-06 10:12 -25.11848 29.59389 28692 ft 503 kts 37°
2026-05-06 10:12 -25.09449 29.62225 29122 ft 507 kts 37°
2026-05-06 10:12 -25.07060 29.65049 29548 ft 510 kts 37°
2026-05-06 10:12 -25.04632 29.67917 29941 ft 513 kts 37°
2026-05-06 10:13 -25.02194 29.70796 30375 ft 514 kts 37°
2026-05-06 10:13 -24.99742 29.73690 30842 ft 514 kts 37°
2026-05-06 10:13 -24.97307 29.76563 31322 ft 514 kts 37°
2026-05-06 10:13 -24.94884 29.79419 31796 ft 513 kts 37°
2026-05-06 10:14 -24.92468 29.82265 32226 ft 513 kts 37°
2026-05-06 10:14 -24.90014 29.85154 32646 ft 513 kts 37°
2026-05-06 10:14 -24.87575 29.88021 33011 ft 513 kts 36°
2026-05-06 10:14 -24.85157 29.90863 33056 ft 513 kts 36°
2026-05-06 10:15 -24.80313 29.96583 33059 ft 510 kts 37°
2026-05-06 10:15 -24.75472 30.02315 33065 ft 511 kts 37°
2026-05-06 10:16 -24.70623 30.08051 33051 ft 513 kts 37°
2026-05-06 10:16 -24.65743 30.13831 33041 ft 513 kts 37°
2026-05-06 10:17 -24.60913 30.19545 33031 ft 514 kts 37°
2026-05-06 10:17 -24.56098 30.25316 33032 ft 513 kts 37°
2026-05-06 10:18 -24.51273 30.31105 33021 ft 513 kts 38°
2026-05-06 10:18 -24.46456 30.36875 33031 ft 513 kts 38°
2026-05-06 10:19 -24.41626 30.42650 33013 ft 515 kts 38°
2026-05-06 10:19 -24.36799 30.48416 33011 ft 514 kts 38°
2026-05-06 10:20 -24.31965 30.54181 32978 ft 515 kts 38°
2026-05-06 10:20 -24.27142 30.59929 32954 ft 513 kts 38°
2026-05-06 10:21 -24.22295 30.65694 32928 ft 516 kts 38°
2026-05-06 10:21 -24.17461 30.71441 32902 ft 512 kts 38°
2026-05-06 10:22 -24.12607 30.77200 32908 ft 515 kts 38°
2026-05-06 10:22 -24.07756 30.82950 32910 ft 516 kts 38°
2026-05-06 10:23 -24.02885 30.88719 32904 ft 514 kts 38°
2026-05-06 10:23 -23.98041 30.94448 32896 ft 516 kts 38°
2026-05-06 10:24 -23.93178 31.00192 32876 ft 515 kts 38°
2026-05-06 10:24 -23.88296 31.05950 32892 ft 517 kts 38°
2026-05-06 10:25 -23.83439 31.11676 32890 ft 515 kts 38°
2026-05-06 10:25 -23.78583 31.17392 32885 ft 515 kts 38°
2026-05-06 10:26 -23.73692 31.23140 32879 ft 517 kts 38°
2026-05-06 10:26 -23.68794 31.28894 32878 ft 515 kts 38°
2026-05-06 10:27 -23.63923 31.34604 32878 ft 518 kts 39°
2026-05-06 10:27 -23.59009 31.40362 32880 ft 516 kts 39°
2026-05-06 10:28 -23.54118 31.46084 32882 ft 518 kts 39°
2026-05-06 10:28 -23.49234 31.51793 32892 ft 517 kts 39°
2026-05-06 10:29 -23.44178 31.57309 32883 ft 508 kts 31°
2026-05-06 10:29 -23.38668 31.62172 32874 ft 508 kts 30°
2026-05-06 10:30 -23.33190 31.66967 32864 ft 506 kts 30°
2026-05-06 10:30 -23.27720 31.71750 32869 ft 508 kts 30°
2026-05-06 10:31 -23.22205 31.76568 32862 ft 506 kts 30°
2026-05-06 10:31 -23.16735 31.81340 32859 ft 508 kts 30°
2026-05-06 10:32 -23.11211 31.86157 32851 ft 506 kts 30°
2026-05-06 10:32 -23.05742 31.90920 32851 ft 505 kts 30°
2026-05-06 10:33 -22.99822 31.94755 32843 ft 484 kts 13°
2026-05-06 10:33 -22.96658 31.95883 32838 ft 473 kts
2026-05-06 10:33 -22.93457 31.96496 32846 ft 469 kts 358°
2026-05-06 10:34 -22.87044 31.96252 32864 ft 451 kts 344°
2026-05-06 10:34 -22.80901 31.95059 32874 ft 447 kts 343°
2026-05-06 10:35 -22.74777 31.93799 32876 ft 449 kts 342°
2026-05-06 10:35 -22.68629 31.92502 32872 ft 449 kts 342°
2026-05-06 10:36 -22.62515 31.91196 32871 ft 448 kts 342°
2026-05-06 10:36 -22.56386 31.89879 32869 ft 449 kts 342°
2026-05-06 10:37 -22.50250 31.88557 32869 ft 447 kts 342°
2026-05-06 10:37 -22.44142 31.87239 32873 ft 450 kts 342°
2026-05-06 10:38 -22.38001 31.85915 32876 ft 449 kts 342°
2026-05-06 10:38 -22.31882 31.84596 32881 ft 450 kts 342°
2026-05-06 10:39 -22.25732 31.83271 32886 ft 449 kts 342°
2026-05-06 10:39 -22.19582 31.81947 32891 ft 450 kts 342°
2026-05-06 10:40 -22.13470 31.80633 32898 ft 449 kts 342°
2026-05-06 10:40 -22.07314 31.79310 32902 ft 449 kts 342°
2026-05-06 10:41 -22.01221 31.78001 32907 ft 449 kts 342°
2026-05-06 10:41 -21.95096 31.76688 32910 ft 448 kts 342°
2026-05-06 10:42 -21.88856 31.75609 32921 ft 455 kts 345°
2026-05-06 10:42 -21.82609 31.74620 32926 ft 452 kts 345°
2026-05-06 10:43 -21.76397 31.73623 32921 ft 453 kts 345°
2026-05-06 10:44 -21.67013 31.72107 32925 ft 455 kts 345°
2026-05-06 10:44 -21.60716 31.71088 32923 ft 455 kts 345°
2026-05-06 10:45 -21.54479 31.70078 32919 ft 456 kts 345°
2026-05-06 10:45 -21.48195 31.69061 32919 ft 456 kts 345°
2026-05-06 10:46 -21.41924 31.68047 32916 ft 457 kts 345°
2026-05-06 10:46 -21.35615 31.67027 32908 ft 456 kts 345°
2026-05-06 10:47 -21.29311 31.66008 32906 ft 457 kts 345°
2026-05-06 10:47 -21.23044 31.64996 32911 ft 458 kts 345°
2026-05-06 10:48 -21.16727 31.63978 32916 ft 457 kts 345°
2026-05-06 10:48 -21.10438 31.62964 32922 ft 458 kts 345°
2026-05-06 10:49 -21.04111 31.61946 32924 ft 457 kts 345°
2026-05-06 10:49 -20.97808 31.60931 32926 ft 459 kts 345°
2026-05-06 10:50 -20.91480 31.59914 32926 ft 459 kts 345°
2026-05-06 10:50 -20.85177 31.58902 32935 ft 458 kts 345°
2026-05-06 10:51 -20.78884 31.57892 32936 ft 459 kts 345°
2026-05-06 10:51 -20.72521 31.56871 32930 ft 461 kts 345°
2026-05-06 10:52 -20.66180 31.55856 32934 ft 460 kts 345°
2026-05-06 10:52 -20.59810 31.54836 32949 ft 462 kts 345°
2026-05-06 10:53 -20.53455 31.53820 32956 ft 461 kts 345°
2026-05-06 10:53 -20.47133 31.52810 32961 ft 462 kts 345°
2026-05-06 10:54 -20.40752 31.51790 32972 ft 463 kts 345°
2026-05-06 10:54 -20.34396 31.50777 32976 ft 462 kts 345°
2026-05-06 10:55 -20.27993 31.49756 32988 ft 464 kts 346°
2026-05-06 10:55 -20.21655 31.48747 33003 ft 462 kts 345°
2026-05-06 10:56 -20.15255 31.47728 33009 ft 464 kts 346°
2026-05-06 10:56 -20.08838 31.46708 33030 ft 464 kts 346°
2026-05-06 10:57 -20.02424 31.45688 33050 ft 466 kts 346°
2026-05-06 10:57 -19.96021 31.44673 33058 ft 464 kts 346°
2026-05-06 10:58 -19.89627 31.43658 33055 ft 466 kts 346°
2026-05-06 10:58 -19.83210 31.42642 33065 ft 464 kts 346°
2026-05-06 10:59 -19.76833 31.41632 33072 ft 465 kts 346°
2026-05-06 10:59 -19.70409 31.40615 33076 ft 466 kts 346°
2026-05-06 11:00 -19.63996 31.39601 33084 ft 466 kts 346°
2026-05-06 11:00 -19.57576 31.38587 33092 ft 467 kts 346°
2026-05-06 11:01 -19.51105 31.37566 33098 ft 468 kts 346°
2026-05-06 11:01 -19.44672 31.36541 33097 ft 465 kts 346°
2026-05-06 11:02 -19.38280 31.35515 33096 ft 468 kts 346°
2026-05-06 11:02 -19.31818 31.34479 33109 ft 467 kts 346°
2026-05-06 11:03 -19.25386 31.33450 33106 ft 468 kts 347°
2026-05-06 11:03 -19.18935 31.32418 33116 ft 466 kts 347°
2026-05-06 11:04 -19.12526 31.31394 33130 ft 467 kts 347°
2026-05-06 11:04 -19.06084 31.30362 33133 ft 467 kts 346°
2026-05-06 11:05 -18.99633 31.29319 33147 ft 469 kts 347°
2026-05-06 11:05 -18.93159 31.28274 33142 ft 468 kts 347°
2026-05-06 11:06 -18.86751 31.27241 33159 ft 469 kts 347°
2026-05-06 11:06 -18.80283 31.26199 33153 ft 468 kts 347°
2026-05-06 11:07 -18.73841 31.25162 33149 ft 468 kts 347°
2026-05-06 11:07 -18.67392 31.24124 33158 ft 470 kts 347°
2026-05-06 11:08 -18.60904 31.23082 33167 ft 471 kts 347°
2026-05-06 11:08 -18.54447 31.22045 33170 ft 470 kts 347°
2026-05-06 11:09 -18.47963 31.21005 33175 ft 469 kts 347°
2026-05-06 11:09 -18.41466 31.19964 33178 ft 470 kts 347°
2026-05-06 11:10 -18.35017 31.18930 33183 ft 471 kts 347°
2026-05-06 11:10 -18.28526 31.17891 33186 ft 471 kts 347°
2026-05-06 11:11 -18.22026 31.16852 33185 ft 471 kts 347°
2026-05-06 11:11 -18.15537 31.15814 33181 ft 471 kts 347°
2026-05-06 11:12 -18.09075 31.14782 33182 ft 471 kts 347°
2026-05-06 11:12 -18.02560 31.13743 33175 ft 470 kts 347°
2026-05-06 11:13 -17.96055 31.12705 33174 ft 473 kts 347°
2026-05-06 11:13 -17.89429 31.12470 33174 ft 482 kts
2026-05-06 11:14 -17.82831 31.13968 33182 ft 487 kts 10°
2026-05-06 11:14 -17.76268 31.15754 33184 ft 487 kts 10°
2026-05-06 11:15 -17.69675 31.17544 33183 ft 488 kts 10°
2026-05-06 11:15 -17.63099 31.19325 33176 ft 488 kts 10°
2026-05-06 11:16 -17.56508 31.21107 33168 ft 489 kts 10°
2026-05-06 11:16 -17.49939 31.22881 33162 ft 490 kts 10°
2026-05-06 11:17 -17.43306 31.24671 33150 ft 489 kts 10°
2026-05-06 11:17 -17.36740 31.26441 33137 ft 489 kts 10°
2026-05-06 11:18 -17.30136 31.28219 33120 ft 490 kts 10°
2026-05-06 11:18 -17.23469 31.30013 33100 ft 491 kts 10°
2026-05-06 11:19 -17.16851 31.31793 33100 ft 491 kts 11°
2026-05-06 11:19 -17.10274 31.33560 33107 ft 490 kts 11°
2026-05-06 11:20 -17.03629 31.35345 33108 ft 490 kts 11°
2026-05-06 11:20 -16.97022 31.37117 33109 ft 490 kts 11°
2026-05-06 11:21 -16.90398 31.38893 33112 ft 492 kts 11°
2026-05-06 11:21 -16.83744 31.40676 33103 ft 492 kts 11°
2026-05-06 11:22 -16.77081 31.42460 33082 ft 492 kts 11°
2026-05-06 11:22 -16.70466 31.44229 33070 ft 493 kts 11°
2026-05-06 11:23 -16.63823 31.46005 33064 ft 493 kts 11°
2026-05-06 11:23 -16.57152 31.47788 33064 ft 493 kts 11°
2026-05-06 11:24 -16.50484 31.49568 33063 ft 494 kts 11°
2026-05-06 11:24 -16.43858 31.51335 33045 ft 493 kts 11°
2026-05-06 11:25 -16.37184 31.53114 33018 ft 494 kts 11°
2026-05-06 11:25 -16.30507 31.54893 32977 ft 493 kts 11°
2026-05-06 11:26 -16.23829 31.56671 32953 ft 494 kts 11°
2026-05-06 11:26 -16.17157 31.58431 32950 ft 494 kts 10°
2026-05-06 11:27 -16.10467 31.59993 32952 ft 494 kts
2026-05-06 11:27 -16.03724 31.61557 32961 ft 495 kts
2026-05-06 11:28 -15.96998 31.63123 32957 ft 494 kts
2026-05-06 11:28 -15.90278 31.64690 32948 ft 496 kts
2026-05-06 11:29 -15.83523 31.66267 32939 ft 494 kts
2026-05-06 11:29 -15.76798 31.67836 32945 ft 496 kts
2026-05-06 11:30 -15.70061 31.69408 32943 ft 494 kts
2026-05-06 11:30 -15.63382 31.70965 32944 ft 494 kts
2026-05-06 11:31 -15.56642 31.72535 32952 ft 496 kts
2026-05-06 11:31 -15.49917 31.74154 32962 ft 496 kts 12°
2026-05-06 11:32 -15.43215 31.76067 32980 ft 498 kts 12°
2026-05-06 11:32 -15.36541 31.77969 32994 ft 497 kts 12°
2026-05-06 11:33 -15.29830 31.79869 33015 ft 498 kts 12°
2026-05-06 11:33 -15.23180 31.81746 33029 ft 497 kts 12°
2026-05-06 11:34 -15.16465 31.83637 33045 ft 498 kts 12°
2026-05-06 11:34 -15.09784 31.85515 33066 ft 498 kts 12°
2026-05-06 11:35 -15.03074 31.87399 33073 ft 498 kts 12°
2026-05-06 11:35 -14.96409 31.89269 33085 ft 498 kts 12°
2026-05-06 11:36 -14.89714 31.91146 33085 ft 498 kts 12°
2026-05-06 11:36 -14.83024 31.93020 33090 ft 498 kts 12°
2026-05-06 11:37 -14.76289 31.94906 33087 ft 498 kts 12°
2026-05-06 11:37 -14.69617 31.96772 33085 ft 498 kts 12°
2026-05-06 11:38 -14.62908 31.98648 33080 ft 498 kts 12°
2026-05-06 11:38 -14.56232 32.00513 33075 ft 498 kts 12°
2026-05-06 11:39 -14.49537 32.02382 33071 ft 498 kts 12°
2026-05-06 11:39 -14.42849 32.04248 33068 ft 498 kts 12°
2026-05-06 11:40 -14.36112 32.06125 33073 ft 498 kts 12°
2026-05-06 11:40 -14.29419 32.07890 33076 ft 497 kts 12°
2026-05-06 11:41 -14.22706 32.09650 33075 ft 498 kts 12°
2026-05-06 11:41 -14.15964 32.11420 33073 ft 497 kts 12°
2026-05-06 11:42 -14.09280 32.13176 33082 ft 497 kts 12°
2026-05-06 11:42 -14.02555 32.14942 33086 ft 498 kts 12°
2026-05-06 11:43 -13.95825 32.16709 33093 ft 497 kts 12°
2026-05-06 11:43 -13.89107 32.18472 33083 ft 497 kts 12°
2026-05-06 11:44 -13.79032 32.21114 33072 ft 497 kts 12°
2026-05-06 11:44 -13.72313 32.22875 33058 ft 497 kts 12°
2026-05-06 11:45 -13.65626 32.24627 33050 ft 497 kts 12°
2026-05-06 11:45 -13.58887 32.26391 33049 ft 497 kts 12°
2026-05-06 11:46 -13.52185 32.28203 33046 ft 499 kts 13°
2026-05-06 11:46 -13.45492 32.30048 33050 ft 499 kts 13°
2026-05-06 11:47 -13.38776 32.31896 33050 ft 498 kts 13°
2026-05-06 11:47 -13.32010 32.33524 33046 ft 497 kts 10°
2026-05-06 11:48 -13.25228 32.35027 33039 ft 498 kts 10°
2026-05-06 11:48 -13.18441 32.36544 33041 ft 498 kts 10°
2026-05-06 11:49 -13.11671 32.38062 33032 ft 499 kts 10°
2026-05-06 11:49 -13.04870 32.39590 33034 ft 498 kts 10°
2026-05-06 11:50 -12.98107 32.41112 33035 ft 497 kts 10°
2026-05-06 11:50 -12.91323 32.42638 33032 ft 498 kts 11°
2026-05-06 11:51 -12.84579 32.44155 33031 ft 499 kts 11°
2026-05-06 11:51 -12.77799 32.45680 33032 ft 498 kts 11°
2026-05-06 11:52 -12.70987 32.47211 33035 ft 498 kts 11°
2026-05-06 11:52 -12.64219 32.48732 33039 ft 498 kts 11°
2026-05-06 11:53 -12.57435 32.50255 33047 ft 497 kts 11°
2026-05-06 11:53 -12.50707 32.51765 33049 ft 497 kts 11°
2026-05-06 11:54 -12.43912 32.53289 33053 ft 497 kts 11°
2026-05-06 11:54 -12.37174 32.54800 33050 ft 497 kts 11°
2026-05-06 11:55 -12.30382 32.56322 33056 ft 498 kts 11°
2026-05-06 11:55 -12.23628 32.57834 33054 ft 497 kts 11°
2026-05-06 11:56 -12.16883 32.59382 33056 ft 497 kts 13°
2026-05-06 11:56 -12.10168 32.61216 33049 ft 498 kts 14°
2026-05-06 11:57 -12.03469 32.63047 33052 ft 497 kts 14°
2026-05-06 11:57 -11.96777 32.64865 33052 ft 497 kts 14°
2026-05-06 11:58 -11.90043 32.66689 33052 ft 499 kts 13°
2026-05-06 11:58 -11.83330 32.68502 33052 ft 498 kts 13°
2026-05-06 11:59 -11.76638 32.70307 33051 ft 497 kts 14°
2026-05-06 11:59 -11.69907 32.72121 33050 ft 497 kts 14°
2026-05-06 12:00 -11.63223 32.73921 33051 ft 496 kts 14°
2026-05-06 12:00 -11.56533 32.75721 33047 ft 497 kts 14°
2026-05-06 12:01 -11.49816 32.77528 33047 ft 498 kts 14°
2026-05-06 12:01 -11.43112 32.79330 33051 ft 498 kts 14°
2026-05-06 12:02 -11.36410 32.81131 33053 ft 498 kts 14°
2026-05-06 12:02 -11.29687 32.82937 33061 ft 498 kts 14°
2026-05-06 12:03 -11.22975 32.84738 33062 ft 499 kts 14°
2026-05-06 12:03 -11.16221 32.86550 33055 ft 499 kts 14°
2026-05-06 12:04 -11.09544 32.88340 33061 ft 499 kts 14°
2026-05-06 12:04 -11.02797 32.90149 33059 ft 499 kts 14°
2026-05-06 12:05 -10.96059 32.91954 33047 ft 499 kts 14°
2026-05-06 12:05 -10.89325 32.93757 33062 ft 499 kts 14°
2026-05-06 12:06 -10.82587 32.95560 33065 ft 500 kts 14°
2026-05-06 12:06 -10.75852 32.97362 33062 ft 499 kts 14°
2026-05-06 12:07 -10.69139 32.99157 33061 ft 500 kts 14°
2026-05-06 12:07 -10.62422 33.00952 33072 ft 499 kts 14°
2026-05-06 12:08 -10.55660 33.02759 33074 ft 498 kts 14°
2026-05-06 12:08 -10.48995 33.04539 33073 ft 498 kts 14°
2026-05-06 12:09 -10.42246 33.06340 33082 ft 500 kts 14°
2026-05-06 12:09 -10.35519 33.08135 33088 ft 499 kts 14°
2026-05-06 12:10 -10.28782 33.09932 33100 ft 500 kts 14°
2026-05-06 12:10 -10.22020 33.11734 33114 ft 500 kts 14°
2026-05-06 12:11 -10.15296 33.13526 33119 ft 499 kts 14°
2026-05-06 12:11 -10.08568 33.15318 33128 ft 499 kts 14°
2026-05-06 12:12 -10.01827 33.17112 33133 ft 500 kts 14°
2026-05-06 12:12 -9.95048 33.18916 33132 ft 501 kts 14°
2026-05-06 12:13 -9.88294 33.20713 33128 ft 501 kts 14°
2026-05-06 12:13 -9.81582 33.22497 33138 ft 501 kts 14°
2026-05-06 12:14 -9.74787 33.24303 33130 ft 501 kts 14°
2026-05-06 12:14 -9.68040 33.26095 33126 ft 500 kts 14°
2026-05-06 12:15 -9.61283 33.27890 33131 ft 500 kts 14°
2026-05-06 12:15 -9.54585 33.29667 33135 ft 501 kts 14°
2026-05-06 12:16 -9.47778 33.31472 33156 ft 504 kts 14°
2026-05-06 12:16 -9.40962 33.33224 33165 ft 506 kts 14°
2026-05-06 12:17 -9.34092 33.34984 33181 ft 505 kts 14°
2026-05-06 12:17 -9.27296 33.36737 33186 ft 504 kts 15°
2026-05-06 12:18 -9.20487 33.38504 33220 ft 502 kts 14°
2026-05-06 12:18 -9.13709 33.40263 33222 ft 501 kts 15°
2026-05-06 12:19 -9.06934 33.42019 33264 ft 503 kts 14°
2026-05-06 12:19 -9.00145 33.43779 33274 ft 503 kts 14°
2026-05-06 12:20 -8.93395 33.45555 33261 ft 504 kts 18°
2026-05-06 12:20 -8.86880 33.48316 33277 ft 505 kts 25°
2026-05-06 12:21 -8.80520 33.51287 33268 ft 504 kts 25°
2026-05-06 12:21 -8.74145 33.54262 33252 ft 505 kts 25°
2026-05-06 12:22 -8.67812 33.57214 33238 ft 501 kts 25°
2026-05-06 12:22 -8.61457 33.60173 33221 ft 502 kts 25°
2026-05-06 12:23 -8.55078 33.63142 33214 ft 504 kts 25°
2026-05-06 12:23 -8.48709 33.66106 33193 ft 505 kts 25°
2026-05-06 12:24 -8.42319 33.69078 33187 ft 505 kts 25°
2026-05-06 12:24 -8.35908 33.72057 33182 ft 503 kts 25°
2026-05-06 12:25 -8.29569 33.75003 33182 ft 503 kts 25°
2026-05-06 12:25 -8.23214 33.77955 33203 ft 502 kts 25°
2026-05-06 12:26 -8.16859 33.80906 33179 ft 502 kts 25°
2026-05-06 12:26 -8.10520 33.83849 33189 ft 502 kts 25°
2026-05-06 12:27 -8.04136 33.86811 33193 ft 502 kts 25°
2026-05-06 12:27 -7.97790 33.89755 33185 ft 501 kts 25°
2026-05-06 12:28 -7.91460 33.92690 33191 ft 502 kts 25°
2026-05-06 12:28 -7.85091 33.95642 33201 ft 501 kts 25°
2026-05-06 12:29 -7.78773 33.98570 33209 ft 502 kts 25°
2026-05-06 12:29 -7.72378 34.01532 33207 ft 501 kts 25°
2026-05-06 12:30 -7.66067 34.04455 33188 ft 501 kts 25°
2026-05-06 12:30 -7.59710 34.07398 33169 ft 502 kts 25°
2026-05-06 12:31 -7.53385 34.10325 33151 ft 501 kts 25°
2026-05-06 12:31 -7.47036 34.13262 33133 ft 502 kts 25°
2026-05-06 12:32 -7.40642 34.16219 33122 ft 503 kts 25°
2026-05-06 12:32 -7.34304 34.19149 33124 ft 502 kts 25°
2026-05-06 12:33 -7.27937 34.22092 33118 ft 500 kts 25°
2026-05-06 12:33 -7.21615 34.25013 33118 ft 500 kts 25°
2026-05-06 12:34 -7.15250 34.27953 33112 ft 501 kts 25°